TimeCDT,TemperatureF,Dew PointF,Humidity,Sea Level PressureIn,VisibilityMPH,Wind Direction,Wind SpeedMPH,Gust SpeedMPH,PrecipitationIn,Events,Conditions,WindDirDegrees,DateUTC
12:15 AM,27.1,17.4,67,30.10,10.0,WNW,5.8,-,N/A,,Clear,300,2013-03-21 05:15:00
12:35 AM,26.6,18.1,70,30.10,10.0,NW,4.6,-,N/A,,Clear,310,2013-03-21 05:35:00
12:55 AM,26.6,18.1,70,30.10,10.0,NW,5.8,-,N/A,,Clear,320,2013-03-21 05:55:00
1:15 AM,27.0,17.2,67,30.10,10.0,NNW,5.8,-,N/A,,Clear,330,2013-03-21 06:15:00
1:35 AM,26.6,17.1,67,30.10,10.0,NW,4.6,-,N/A,,Clear,320,2013-03-21 06:35:00
1:55 AM,26.6,17.1,67,30.10,10.0,NNW,6.9,-,N/A,,Clear,330,2013-03-21 06:55:00
2:15 AM,26.4,16.9,67,30.10,10.0,NNW,6.9,-,N/A,,Clear,330,2013-03-21 07:15:00
2:35 AM,26.2,17.2,69,30.10,10.0,NNW,8.1,-,N/A,,Clear,340,2013-03-21 07:35:00
2:55 AM,26.6,17.6,69,30.09,10.0,NNW,11.5,-,N/A,,Clear,340,2013-03-21 07:55:00
3:15 AM,25.5,16.2,68,30.09,10.0,NNW,6.9,-,N/A,,Clear,330,2013-03-21 08:15:00
3:35 AM,25.2,15.6,67,30.08,10.0,NW,8.1,-,N/A,,Clear,320,2013-03-21 08:35:00
3:55 AM,25.2,16.0,68,30.08,10.0,NW,9.2,-,N/A,,Clear,320,2013-03-21 08:55:00
4:15 AM,24.8,15.1,67,30.08,10.0,NNW,8.1,-,N/A,,Clear,330,2013-03-21 09:15:00
4:35 AM,24.1,15.3,69,30.08,10.0,WNW,6.9,-,N/A,,Clear,290,2013-03-21 09:35:00
4:55 AM,24.8,14.0,64,30.07,10.0,NW,9.2,-,N/A,,Clear,320,2013-03-21 09:55:00
5:15 AM,23.9,15.4,70,30.08,10.0,NW,8.1,-,N/A,,Clear,310,2013-03-21 10:15:00
5:35 AM,23.9,15.3,70,30.07,10.0,NNW,9.2,-,N/A,,Clear,330,2013-03-21 10:35:00
5:55 AM,23.7,15.8,72,30.07,10.0,NW,6.9,-,N/A,,Clear,320,2013-03-21 10:55:00
6:15 AM,23.5,15.1,70,30.07,10.0,NW,8.1,-,N/A,,Clear,320,2013-03-21 11:15:00
6:35 AM,23.2,15.1,71,30.08,10.0,NW,8.1,-,N/A,,Clear,320,2013-03-21 11:35:00
6:55 AM,23.0,15.8,74,30.09,10.0,NW,6.9,-,N/A,,Clear,310,2013-03-21 11:55:00
7:15 AM,23.0,15.1,72,30.10,10.0,NW,5.8,-,N/A,,Clear,310,2013-03-21 12:15:00
7:35 AM,23.0,15.6,73,30.10,10.0,NW,9.2,-,N/A,,Clear,320,2013-03-21 12:35:00
7:55 AM,23.0,16.0,74,30.10,10.0,NW,8.1,-,N/A,,Clear,320,2013-03-21 12:55:00
8:15 AM,23.4,16.2,74,30.10,10.0,NNW,6.9,-,N/A,,Scattered Clouds,340,2013-03-21 13:15:00
8:35 AM,23.7,15.6,71,30.11,10.0,North,8.1,-,N/A,Snow,Light Snow,350,2013-03-21 13:35:00
8:55 AM,24.4,16.0,70,30.11,10.0,North,8.1,-,N/A,,Overcast,350,2013-03-21 13:55:00
9:15 AM,24.4,15.6,69,30.11,10.0,North,6.9,-,N/A,,Mostly Cloudy,10,2013-03-21 14:15:00
9:35 AM,24.8,15.1,67,30.12,10.0,North,9.2,-,N/A,,Scattered Clouds,350,2013-03-21 14:35:00
9:55 AM,25.2,15.4,67,30.12,10.0,North,6.9,-,N/A,,Clear,360,2013-03-21 14:55:00
10:15 AM,25.7,16.3,68,30.13,10.0,North,3.5,-,N/A,,Scattered Clouds,10,2013-03-21 15:15:00
10:35 AM,26.1,16.5,67,30.13,10.0,NNW,5.8,-,N/A,,Mostly Cloudy,340,2013-03-21 15:35:00
10:55 AM,26.4,15.4,63,30.13,10.0,Calm,Calm,-,N/A,,Scattered Clouds,0,2013-03-21 15:55:00
11:15 AM,27.1,16.3,64,30.12,10.0,Calm,Calm,-,N/A,,Scattered Clouds,0,2013-03-21 16:15:00
11:35 AM,27.3,15.6,61,30.12,10.0,North,4.6,-,N/A,,Scattered Clouds,350,2013-03-21 16:35:00
11:55 AM,28.4,16.0,60,30.11,10.0,North,5.8,-,N/A,,Clear,360,2013-03-21 16:55:00
12:15 PM,29.1,15.3,56,30.11,10.0,Calm,Calm,-,N/A,,Clear,0,2013-03-21 17:15:00
12:35 PM,29.3,17.1,60,30.11,10.0,West,4.6,-,N/A,,Clear,260,2013-03-21 17:35:00
12:55 PM,30.4,17.4,59,30.10,10.0,WSW,4.6,-,N/A,,Clear,250,2013-03-21 17:55:00
1:15 PM,30.7,17.2,57,30.10,10.0,Calm,Calm,-,N/A,,Clear,0,2013-03-21 18:15:00
1:35 PM,31.8,18.7,58,30.09,10.0,West,4.6,-,N/A,,Clear,280,2013-03-21 18:35:00
1:55 PM,32.0,17.6,55,30.08,10.0,Calm,Calm,-,N/A,,Clear,0,2013-03-21 18:55:00
2:15 PM,32.0,19.6,60,30.07,10.0,South,4.6,-,N/A,,Clear,180,2013-03-21 19:15:00
2:35 PM,32.0,17.6,55,30.06,10.0,Calm,Calm,-,N/A,,Clear,0,2013-03-21 19:35:00
2:55 PM,33.1,19.0,56,30.05,10.0,Calm,Calm,-,N/A,,Clear,0,2013-03-21 19:55:00
3:15 PM,33.3,19.4,57,30.04,10.0,Calm,Calm,-,N/A,,Clear,0,2013-03-21 20:15:00
3:35 PM,34.5,19.0,53,30.03,10.0,ENE,8.1,-,N/A,,Clear,60,2013-03-21 20:35:00
3:55 PM,34.3,17.1,49,30.03,10.0,Calm,Calm,-,N/A,,Clear,0,2013-03-21 20:55:00
4:15 PM,34.3,19.9,56,30.02,10.0,North,3.5,-,N/A,,Clear,10,2013-03-21 21:15:00
4:35 PM,35.2,19.2,52,30.02,10.0,Calm,Calm,-,N/A,,Clear,0,2013-03-21 21:35:00
4:55 PM,34.7,18.3,51,30.01,10.0,Calm,Calm,-,N/A,,Clear,0,2013-03-21 21:55:00
5:15 PM,34.9,20.1,55,30.01,10.0,NE,6.9,-,N/A,,Clear,50,2013-03-21 22:15:00
5:35 PM,35.4,19.9,53,30.01,10.0,NE,4.6,-,N/A,,Clear,40,2013-03-21 22:35:00
5:55 PM,34.7,20.3,56,30.02,10.0,ENE,4.6,-,N/A,,Clear,70,2013-03-21 22:55:00
6:15 PM,35.1,20.7,56,30.02,10.0,ENE,4.6,-,N/A,,Clear,60,2013-03-21 23:15:00
6:35 PM,34.7,19.0,53,30.03,10.0,ENE,4.6,-,N/A,,Clear,70,2013-03-21 23:35:00
6:55 PM,35.6,21.2,56,30.03,10.0,East,3.5,-,N/A,,Clear,80,2013-03-21 23:55:00
7:15 PM,33.8,21.2,60,30.03,10.0,Calm,Calm,-,N/A,,Clear,0,2013-03-22 00:15:00
7:35 PM,33.3,19.9,58,30.04,10.0,NE,3.5,-,N/A,,Clear,50,2013-03-22 00:35:00
7:55 PM,32.5,21.6,64,30.04,10.0,NE,3.5,-,N/A,,Clear,50,2013-03-22 00:55:00
8:15 PM,32.2,20.8,63,30.04,10.0,Calm,Calm,-,N/A,,Clear,0,2013-03-22 01:15:00
8:35 PM,32.0,20.7,63,30.04,10.0,East,3.5,-,N/A,,Clear,80,2013-03-22 01:35:00
8:55 PM,32.0,20.3,62,30.04,10.0,East,4.6,-,N/A,,Clear,90,2013-03-22 01:55:00
9:15 PM,31.8,19.9,62,30.04,10.0,East,3.5,-,N/A,,Clear,80,2013-03-22 02:15:00
9:35 PM,31.5,19.8,62,30.04,10.0,East,4.6,-,N/A,,Clear,80,2013-03-22 02:35:00
9:55 PM,31.5,19.6,62,30.05,10.0,East,4.6,-,N/A,,Clear,90,2013-03-22 02:55:00
10:15 PM,31.1,19.9,63,30.05,10.0,East,4.6,-,N/A,,Clear,90,2013-03-22 03:15:00
10:35 PM,30.9,19.9,64,30.05,10.0,East,3.5,-,N/A,,Clear,80,2013-03-22 03:35:00
10:55 PM,30.7,19.8,64,30.05,10.0,East,3.5,-,N/A,,Clear,90,2013-03-22 03:55:00
11:15 PM,30.6,19.6,64,30.04,10.0,Calm,Calm,-,N/A,,Clear,0,2013-03-22 04:15:00
11:35 PM,30.2,19.9,66,30.05,10.0,Calm,Calm,-,N/A,,Clear,0,2013-03-22 04:35:00
11:55 PM,29.8,20.7,69,30.04,10.0,Calm,Calm,-,N/A,,Clear,0,2013-03-22 04:55:00